• In Germany
  • List of Countries
  • For 7 days
  • Water Temperature
  • Satellite Maps
  • Weather Map
  • Weather Widgets
  • user-avatar
    Login

    Hourly Weather Quito

    Today, 24 June, Saturday

    Time Temperature Precipitation Wind Pressure Humidity
    00:00 +8°C° 0 mm 2 mps 622 mmHg 61%
    01:00 +8°C° 0 mm 1 mps 621 mmHg 67%
    02:00 +8°C° 0 mm 1 mps 621 mmHg 70%
    03:00 +8°C° 0 mm 1 mps 621 mmHg 72%
    04:00 +8°C° 0 mm 1 mps 621 mmHg 75%
    05:00 +8°C° 0 mm 1 mps 621 mmHg 72%
    06:00 +9°C° 0 mm 1 mps 622 mmHg 70%
    07:00 +11°C° 0 mm 1 mps 623 mmHg 60%
    08:00 +14°C° 0 mm 2 mps 624 mmHg 51%
    09:00 +17°C° 0 mm 3 mps 625 mmHg 42%
    10:00 +20°C° 0 mm 3 mps 625 mmHg 33%
    11:00 +21°C° 0 mm 3 mps 625 mmHg 29%
    12:00 +24°C° 0 mm 2 mps 626 mmHg 25%
    13:00 +26°C° 0 mm 1 mps 626 mmHg 21%
    14:00 +26°C° 0 mm 1 mps 625 mmHg 21%
    15:00 +26°C° 0 mm 1 mps 624 mmHg 21%
    16:00 +25°C° 0 mm 1 mps 624 mmHg 21%
    17:00 +22°C° 0 mm 1 mps 623 mmHg 29%
    18:00 +18°C° 0 mm 1 mps 622 mmHg 38%
    19:00 +13°C° 0 mm 1 mps 621 mmHg 46%
    20:00 +13°C° 0 mm 1 mps 621 mmHg 47%
    21:00 +12°C° 0 mm 1 mps 621 mmHg 47%
    22:00 +11°C° 0 mm 1 mps 621 mmHg 47%
    23:00 +11°C° 0 mm 1 mps 621 mmHg 52%

    Tomorrow, 25 June, Sunday

    Time Temperature Precipitation Wind Pressure Humidity
    00:00 +10°C° 0 mm 1 mps 620 mmHg 58%
    01:00 +9°C° 0 mm 1 mps 620 mmHg 63%
    02:00 +9°C° 0 mm 1 mps 620 mmHg 64%
    03:00 +9°C° 0 mm 1 mps 620 mmHg 65%
    04:00 +8°C° 0 mm 1 mps 619 mmHg 66%
    05:00 +9°C° 0 mm 1 mps 620 mmHg 64%
    06:00 +10°C° 0 mm 1 mps 621 mmHg 62%
    07:00 +11°C° 0 mm 1 mps 621 mmHg 60%
    08:00 +15°C° 0 mm 2 mps 623 mmHg 49%
    09:00 +18°C° 0 mm 2 mps 624 mmHg 39%
    10:00 +22°C° 0 mm 3 mps 625 mmHg 29%
    11:00 +25°C° 0 mm 3 mps 625 mmHg 26%
    12:00 +26°C° 0 mm 3 mps 625 mmHg 24%
    13:00 +27°C° 0 mm 2 mps 625 mmHg 21%
    14:00 +27°C° 0 mm 2 mps 624 mmHg 21%
    15:00 +27°C° 0 mm 2 mps 624 mmHg 21%
    16:00 +27°C° 0 mm 2 mps 624 mmHg 21%
    17:00 +23°C° 0 mm 2 mps 623 mmHg 30%
    18:00 +19°C° 0 mm 2 mps 622 mmHg 39%
    19:00 +15°C° 0 mm 1 mps 621 mmHg 48%
    20:00 +14°C° 0 mm 1 mps 621 mmHg 47%
    21:00 +14°C° 0 mm 1 mps 621 mmHg 47%
    22:00 +13°C° 0 mm 1 mps 621 mmHg 46%
    23:00 +12°C° 0 mm 1 mps 621 mmHg 50%

    Day after tomorrow, 26 June, Monday

    Time Temperature Precipitation Wind Pressure Humidity
    00:00 +12°C° 0 mm 1 mps 621 mmHg 53%
    01:00 +11°C° 0 mm 1 mps 621 mmHg 57%
    02:00 +11°C° 0 mm 1 mps 620 mmHg 61%
    03:00 +10°C° 0 mm 1 mps 620 mmHg 65%
    04:00 +10°C° 0 mm 1 mps 620 mmHg 70%
    05:00 +11°C° 0 mm 1 mps 620 mmHg 67%
    06:00 +11°C° 0 mm 1 mps 621 mmHg 64%
    07:00 +12°C° 0 mm 1 mps 622 mmHg 61%
    08:00 +16°C° 0 mm 2 mps 623 mmHg 51%
    09:00 +20°C° 0 mm 3 mps 625 mmHg 40%
    10:00 +25°C° 0 mm 4 mps 626 mmHg 29%
    11:00 +26°C° 0 mm 3 mps 626 mmHg 27%
    12:00 +27°C° 0 mm 3 mps 626 mmHg 24%
    13:00 +28°C° 0 mm 3 mps 625 mmHg 22%
    14:00 +28°C° 0 mm 3 mps 625 mmHg 22%
    15:00 +28°C° 0 mm 2 mps 624 mmHg 22%
    16:00 +28°C° 0 mm 2 mps 624 mmHg 22%
    17:00 +24°C° 0 mm 2 mps 623 mmHg 29%
    18:00 +20°C° 0 mm 2 mps 622 mmHg 36%
    19:00 +16°C° 0 mm 2 mps 621 mmHg 43%
    20:00 +16°C° 0 mm 2 mps 622 mmHg 45%
    21:00 +15°C° 0 mm 1 mps 622 mmHg 47%
    22:00 +14°C° 0 mm 1 mps 622 mmHg 49%
    23:00 +14°C° 0 mm 1 mps 622 mmHg 52%

    27 June, Tuesday

    Time Temperature Precipitation Wind Pressure Humidity
    00:00 +13°C° 0 mm 1 mps 622 mmHg 56%
    01:00 +13°C° 0 mm 1 mps 621 mmHg 59%
    02:00 +12°C° 0 mm 1 mps 621 mmHg 62%
    03:00 +12°C° 0 mm 1 mps 621 mmHg 64%
    04:00 +11°C° 0 mm 1 mps 620 mmHg 67%
    05:00 +12°C° 0 mm 1 mps 621 mmHg 64%
    06:00 +12°C° 0 mm 1 mps 622 mmHg 62%
    07:00 +13°C° 0 mm 1 mps 623 mmHg 60%
    08:00 +16°C° 0 mm 2 mps 624 mmHg 50%
    09:00 +20°C° 0 mm 3 mps 625 mmHg 40%
    10:00 +24°C° 0 mm 3 mps 626 mmHg 30%
    11:00 +26°C° 0 mm 3 mps 626 mmHg 27%
    12:00 +27°C° 0 mm 2 mps 626 mmHg 24%
    13:00 +29°C° 0 mm 2 mps 626 mmHg 21%
    14:00 +28°C° 0 mm 2 mps 625 mmHg 21%
    15:00 +28°C° 0 mm 2 mps 625 mmHg 21%
    16:00 +28°C° 0 mm 2 mps 624 mmHg 21%
    17:00 +25°C° 0 mm 2 mps 624 mmHg 27%
    18:00 +20°C° 0 mm 2 mps 623 mmHg 33%
    19:00 +17°C° 0 mm 2 mps 623 mmHg 39%
    20:00 +18°C° 0 mm 1 mps 623 mmHg 41%
    21:00 +16°C° 0 mm 1 mps 623 mmHg 44%
    22:00 +15°C° 0 mm 1 mps 623 mmHg 46%
    23:00 +14°C° 0 mm 1 mps 622 mmHg 50%

    28 June, Wednesday

    Time Temperature Precipitation Wind Pressure Humidity
    00:00 +13°C° 0 mm 1 mps 622 mmHg 53%
    01:00 +12°C° 0 mm 1 mps 621 mmHg 57%
    02:00 +12°C° 0 mm 1 mps 621 mmHg 60%
    03:00 +11°C° 0 mm 1 mps 621 mmHg 63%
    04:00 +11°C° 0 mm 1 mps 621 mmHg 66%
    05:00 +11°C° 0 mm 1 mps 621 mmHg 64%
    06:00 +12°C° 0 mm 1 mps 622 mmHg 63%
    07:00 +13°C° 0 mm 1 mps 623 mmHg 61%
    08:00 +16°C° 0 mm 1 mps 624 mmHg 50%
    09:00 +20°C° 0 mm 2 mps 625 mmHg 39%
    10:00 +24°C° 0 mm 2 mps 626 mmHg 28%
    11:00 +26°C° 0 mm 2 mps 626 mmHg 25%
    12:00 +27°C° 0 mm 2 mps 626 mmHg 23%
    13:00 +29°C° 0 mm 1 mps 626 mmHg 20%
    14:00 +28°C° 0 mm 1 mps 625 mmHg 20%
    15:00 +28°C° 0 mm 2 mps 625 mmHg 20%
    16:00 +27°C° 0 mm 2 mps 624 mmHg 20%
    17:00 +24°C° 0 mm 2 mps 623 mmHg 27%
    18:00 +20°C° 0 mm 2 mps 623 mmHg 34%
    19:00 +16°C° 0 mm 2 mps 622 mmHg 41%
    20:00 +16°C° 0 mm 2 mps 622 mmHg 42%
    21:00 +15°C° 0 mm 1 mps 622 mmHg 42%
    22:00 +14°C° 0 mm 1 mps 622 mmHg 43%
    23:00 +14°C° 0 mm 1 mps 622 mmHg 46%

    29 June, Thursday

    Time Temperature Precipitation Wind Pressure Humidity
    00:00 +13°C° 0 mm 1 mps 621 mmHg 49%
    01:00 +12°C° 0 mm 1 mps 621 mmHg 51%
    02:00 +11°C° 0 mm 1 mps 621 mmHg 54%
    03:00 +11°C° 0 mm 1 mps 621 mmHg 57%
    04:00 +10°C° 0 mm 1 mps 620 mmHg 60%
    05:00 +11°C° 0 mm 1 mps 621 mmHg 60%
    06:00 +12°C° 0 mm 1 mps 622 mmHg 60%
    07:00 +11°C° 0 mm 0 mps 623 mmHg 60%
    08:00 +16°C° 0 mm 1 mps 624 mmHg 48%
    09:00 +20°C° 0 mm 2 mps 625 mmHg 37%
    10:00 +24°C° 0 mm 3 mps 627 mmHg 25%
    11:00 +25°C° 0 mm 2 mps 626 mmHg 23%
    12:00 +27°C° 0 mm 2 mps 626 mmHg 21%
    13:00 +28°C° 0 mm 2 mps 626 mmHg 19%
    14:00 +28°C° 0 mm 2 mps 625 mmHg 19%
    15:00 +27°C° 0 mm 2 mps 625 mmHg 19%
    16:00 +27°C° 0 mm 2 mps 624 mmHg 19%
    17:00 +23°C° 0 mm 2 mps 624 mmHg 26%
    18:00 +19°C° 0 mm 2 mps 623 mmHg 33%
    19:00 +15°C° 0 mm 1 mps 622 mmHg 40%
    20:00 +15°C° 0 mm 1 mps 622 mmHg 40%
    21:00 +15°C° 0 mm 1 mps 622 mmHg 39%
    22:00 +14°C° 0 mm 1 mps 623 mmHg 39%
    23:00 +14°C° 0 mm 1 mps 622 mmHg 41%
    Show more